Location: Basse Occidentale du Courleau
(48.3833°N, 4.8333°W)
Time: 03:37:58
(UTC+00:00)

Cosmos 1844 Rocket - Pass Details

Date: 05 July 2020
Orbit: 826 x 843 km, 71.0° (Epoch: 11 August)

Event Time Altitude Azimuth Distance (km) Brightness Sun altitude
Rises 21:04:09 0° 332° (NNW) 3,378 7.6 -6.1°
Reaches altitude 10° 21:06:35 10° 333° (NNW) 2,440 6.6 -6.4°
Maximum altitude 21:12:12 85° 61° (ENE) 836 2.7 -7.0°
Drops below altitude 10° 21:17:46 10° 152° (SSE) 2,423 4.5 -7.6°
Enters shadow 21:18:07 - 152° (SSE) 2,558 4.6 -7.7°
